Satellite: DO-64
Catalog number: 32789
Epoch time:      08352.22281659
Element set:     240
Inclination:      097.9725 deg
RA of node:       051.4639 deg
Eccentricity:    0.0014831
Arg of perigee:   263.0691 deg
Mean anomaly:     096.8831 deg
Mean motion:   14.81562847 rev/day
Decay rate:       5.07e-06 rev/day^2
Epoch rev:            3450
Checksum:              324

Satellite: AAUSAT2
Catalog number: 32788
Epoch time:      08351.86871699
Element set:     229
Inclination:      097.9689 deg
RA of node:       051.0449 deg
Eccentricity:    0.0014176
Arg of perigee:   264.9818 deg
Mean anomaly:     094.9755 deg
Mean motion:   14.81630967 rev/day
Decay rate:       2.25e-06 rev/day^2
Epoch rev:            3445
Checksum:              360

Satellite: COMPASS
Catalog number: 32787
Epoch time:      08352.83163847
Element set:     229
Inclination:      097.9690 deg
RA of node:       051.9724 deg
Eccentricity:    0.0014722
Arg of perigee:   261.6647 deg
Mean anomaly:     098.2881 deg
Mean motion:   14.81516683 rev/day
Decay rate:       2.22e-06 rev/day^2
Epoch rev:            3459
Checksum:              329

Satellite: CAPE1
Catalog number: 31130
Epoch time:      08352.91078084
Element set:     480
Inclination:      098.0183 deg
RA of node:       048.3639 deg
Eccentricity:    0.0103764
Arg of perigee:   126.2902 deg
Mean anomaly:     234.7937 deg
Mean motion:   14.52016635 rev/day
Decay rate:       -5.1e-07 rev/day^2
Epoch rev:            8838
Checksum:              293

Satellite: MAST
Catalog number: 31126
Epoch time:      08352.22559953
Element set:     482
Inclination:      098.0181 deg
RA of node:       049.1181 deg
Eccentricity:    0.0095624
Arg of perigee:   124.2336 deg
Mean anomaly:     236.7973 deg
Mean motion:   14.53465409 rev/day
Decay rate:        6.6e-07 rev/day^2
Epoch rev:            8860
Checksum:              305

Satellite: FALCON
Catalog number: 30776
Epoch time:      08351.77833660
Element set:     461
Inclination:      035.4330 deg
RA of node:       126.0151 deg
Eccentricity:    0.0000118
Arg of perigee:   328.6681 deg
Mean anomaly:     031.4028 deg
Mean motion:   15.03126089 rev/day
Decay rate:       2.52e-06 rev/day^2
Epoch rev:            9763
Checksum:              265

Satellite: CO-58
Catalog number: 28895
Epoch time:      08353.44617605
Element set:     192
Inclination:      098.0795 deg
RA of node:       242.8911 deg
Eccentricity:    0.0017915
Arg of perigee:   189.6511 deg
Mean anomaly:     170.4312 deg
Mean motion:   14.59724675 rev/day
Decay rate:        5.0e-08 rev/day^2
Epoch rev:           16736
Checksum:              336

Satellite: ISS
Catalog number: 25544
Epoch time:      08352.55733206
Element set:     876
Inclination:      051.6385 deg
RA of node:       156.6387 deg
Eccentricity:    0.0007626
Arg of perigee:   100.1805 deg
Mean anomaly:     014.8765 deg
Mean motion:   15.71585814 rev/day
Decay rate:     1.1020e-04 rev/day^2
Epoch rev:           57738
Checksum:              307

Satellite: PO-34
Catalog number: 25520
Epoch time:      08353.17810368
Element set:     144
Inclination:      028.4602 deg
RA of node:       026.9059 deg
Eccentricity:    0.0005470
Arg of perigee:   134.3007 deg
Mean anomaly:     225.8033 deg
Mean motion:   15.17272542 rev/day
Decay rate:       3.81e-06 rev/day^2
Epoch rev:           56113
Checksum:              267

Satellite: HUBBLE
Catalog number: 20580
Epoch time:      08353.79718393
Element set:     286
Inclination:      028.4683 deg
RA of node:       199.1166 deg
Eccentricity:    0.0004234
Arg of perigee:   189.7983 deg
Mean anomaly:     170.2492 deg
Mean motion:   15.00440514 rev/day
Decay rate:       4.10e-06 rev/day^2
Epoch rev:           82273
Checksum:              304

/EX



_______________________________________________
Via the Keps mailing list courtesy of AMSAT-NA
http://amsat.org/mailman/listinfo/keps

--- ViaMAIL!/WC v1.60d
 * Origin: Chowdanet (401-724-4410) telnet://chowdanet.com  (1:323/120)